Regional Weather Roundup
Issued by NWS

Home | Current Version | Previous Version | Text Only | Print | Product List | Glossary Off
Versions: 1 2 3 4 5 6 7 8 9 10 11 12 13 14 15 16 17 18 19 20 21 22 23 24 25 26 27 28 29 30 31 32 33 34 35 36 37 38 39 40 41 42 43 44 45 46 47 48 49 50

000
ASUS43 KLSX 241259
RWRMO

WEATHER SUMMARY FOR MISSOURI
NATIONAL WEATHER SERVICE SPRINGFIELD MO
800 AM CDT THU JUL 24 2014

NOTE: "FAIR" INDICATES FEW OR NO CLOUDS BELOW 12,000 FEET WITH NO
       SIGNIFICANT WEATHER AND/OR OBSTRUCTIONS TO VISIBILITY.
       CURRENT SKY AND/OR WEATHER CONDITIONS ARE NOT AVAILABLE FOR
       CHILLICOTHE AND FARMINGTON.

MOZ001>031-035>038-043-044-053-054-241400-
...NORTHERN AND WESTERN MISSOURI...

CITY           SKY/WX    TMP DP  RH WIND       PRES   REMARKS
KANSAS CTY INT MOSUNNY   70  60  70 SE8       30.15R
KANSAS C DTWN  SUNNY     71  60  68 E5        30.14S
LEE`S SUMMIT   SUNNY     68  60  75 E8        30.16R
ST JOSEPH      SUNNY     69  60  73 SE6       30.15R
CHILLICOTHE      N/A     67  59  75 E3        30.18R
KIRKSVILLE     SUNNY     65  61  87 E6        30.18S

$$
MOZ066>068-077>081-088>096-101>105-241400-
...SOUTHWEST MISSOURI...

CITY           SKY/WX    TMP DP  RH WIND       PRES   REMARKS
SPRINGFIELD    SUNNY     70  61  73 E10       30.14R
JOPLIN         SUNNY     70  65  84 E9        30.12R

$$
MOZ032>034-039>042-045>050-055>058-069>072-241400-
...CENTRAL MISSOURI...

CITY           SKY/WX    TMP DP  RH WIND       PRES   REMARKS
COLUMBIA       SUNNY     66  57  72 E7        30.17R
JEFFERSON CITY SUNNY     66  60  81 SE3       30.16R
ROLLA          SUNNY     65  58  78 E3        30.15R
SEDALIA        SUNNY     68  61  78 E5        30.17R
OSAGE BEACH    SUNNY     66  59  77 E6        30.16R

$$
MOZ051-052-059>065-241400-
...EAST CENTRAL MISSOURI...

CITY           SKY/WX    TMP DP  RH WIND       PRES   REMARKS
ST LOUIS INTL  SUNNY     66  52  60 NE10      30.15R
SPIRIT OF STL  SUNNY     66  54  65 NE7       30.14S
ST CHARLES     SUNNY     64  53  67 NE12      30.15R

$$
MOZ072>076-082>087-097>100-106>115-241400-
...SOUTH CENTRAL AND SOUTHEAST MISSOURI...

CITY           SKY/WX    TMP DP  RH WIND       PRES   REMARKS
CAPE GIRARDEAU SUNNY     64  53  67 N10       30.10R
FARMINGTON     SUNNY     63  50  63 N8        30.16R
POPLAR BLUFF   SUNNY     67  51  56 N5        30.10R
WEST PLAINS    SUNNY     67  56  67 NE5       30.16R

$$



USA.gov is the U.S. government's official web portal to all federal, state and local government web resources and services.